Mombasa, Kenya

3:21 AM EAT on July 28, 2017 (GMT +0300)
Mombasa

Weather History for HKMO - August, 2013

Change the Weather History Date:

Sunday, August 11, 2013

  Actual Average Record
Temperature  
Mean Temperature 75 °F -  
Max Temperature 81 °F 84 °F 86 °F (2010)
Min Temperature 69 °F 67 °F 66 °F (1996)
Cooling Degree Days 10    
Growing Degree Days 25 (Base 50)    
Moisture  
Dew Point 68 °F    
Average Humidity 77    
Maximum Humidity 94    
Minimum Humidity 15    
Precipitation  
Precipitation 0.00 in 0.09 in - ()
Sea Level Pressure  
Sea Level Pressure 30.00 in    
Wind  
Wind Speed 6 mph ()    
Max Wind Speed 16 mph    
Max Gust Speed -    
Visibility 7.7 miles    
Events      
Averages and records for this station are not official NWS values.
T = Trace of Precipitation, MM = Missing Value Source: Averaged Metar Reports

Daily Weather History Graph

Daily Weather History Graph

Search for Another Location

Airport or City:

Trip Planner

Search our weather history database for the weather conditions in past years. The results will help you decide how hot, cold, wet, or windy it might be!

Date:

Astronomy

Aug. 11, 2013 Rise Set
Actual Time 6:27 AM EAT 6:25 PM EAT
Civil Twilight 6:06 AM EAT 6:47 PM EAT
Nautical Twilight 5:41 AM EAT 7:12 PM EAT
Astronomical Twilight 5:16 AM EAT 7:36 PM EAT
Moon 9:31 AM EAT (8/11) 9:58 PM EAT (8/11)
Length of Visible Light 12h 40m
Length of Day
11h 58m
Waxing Crescent, 19% of the Moon is Illuminated
Aug 11
Waxing Crescent
Aug 14
First Quarter
Aug 21
Full
Aug 28
Last Quarter
Sep 5
New

Hourly Weather History & Observations

Time (EAT) Temp. Heat Index Dew Point Humidity Pressure Visibility Wind Dir Wind Speed Gust Speed Precip Events Conditions
3:00 AM 72 °F - 71 °F 94% 29.97 in 16 mi Calm Calm - -   Mostly Cloudy
4:00 AM 71.6 °F - 69.8 °F 94% 29.95 in 6.2 mi Calm Calm - N/A   Scattered Clouds
4:30 AM 71.6 °F - 69.8 °F 94% 29.98 in 6.2 mi Calm Calm - N/A   Scattered Clouds
6:00 AM 71.6 °F - 69.8 °F 94% 29.98 in 6.2 mi South 4.6 mph - N/A   Mostly Cloudy
7:00 AM 71.6 °F - 69.8 °F 94% 30.01 in 6.2 mi SSW 9.2 mph - N/A   Partly Cloudy
8:00 AM 73.4 °F - 71.6 °F 94% 30.04 in 6.2 mi South 10.4 mph - N/A   Scattered Clouds
9:00 AM 75 °F - 36 °F 15% 30.05 in 19 mi SSW 11.5 mph - -   Partly Cloudy
9:00 AM 75.2 °F - 71.6 °F 89% 30.04 in 6.2 mi SSW 11.5 mph - N/A   Scattered Clouds
10:00 AM 78.8 °F - 69.8 °F 74% 30.06 in 6.2 mi SSE 6.9 mph - N/A   Mostly Cloudy
11:00 AM 80.6 °F 83.9 °F 69.8 °F 70% 30.04 in 6.2 mi South 13.8 mph - N/A   Mostly Cloudy
12:00 PM 80.6 °F 83.2 °F 68.0 °F 65% 30.04 in 6.2 mi South 12.7 mph - N/A   Scattered Clouds
2:00 PM 80.6 °F 83.2 °F 68.0 °F 65% 29.98 in 6.2 mi South 16.1 mph - N/A   Partly Cloudy
3:00 PM 81 °F - 68 °F 57% 29.98 in 3 mi SSE 13.8 mph - -   Scattered Clouds
3:00 PM 80.6 °F 83.2 °F 68.0 °F 65% 29.98 in 6.2 mi SSE 13.8 mph - N/A   Partly Cloudy
4:00 PM 80.6 °F 83.2 °F 68.0 °F 65% 29.98 in 6.2 mi South 13.8 mph - N/A   Partly Cloudy
5:00 PM 78.8 °F - 68.0 °F 69% 29.98 in 6.2 mi SE 3.5 mph - N/A   Partly Cloudy
6:00 PM 77.0 °F - 69.8 °F 78% 29.98 in 6.2 mi SSE 9.2 mph - N/A   Partly Cloudy
7:00 PM 75.2 °F - 69.8 °F 83% 29.98 in 6.2 mi SSE 8.1 mph - N/A   Partly Cloudy
8:00 PM 75.2 °F - 69.8 °F 83% 30.01 in 6.2 mi South 10.4 mph - N/A   Partly Cloudy
9:00 PM 75 °F - 69 °F 78% 30.02 in 19 mi South 10.4 mph - -   Scattered Clouds
9:00 PM 75.2 °F - 69.8 °F 83% 30.01 in 6.2 mi South 10.4 mph - N/A   Partly Cloudy
11:00 PM 71.6 °F - 69.8 °F 94% 30.04 in 6.2 mi South 5.8 mph - N/A   Partly Cloudy